Clayton Lake, ME

5:14 AM EST on December 14, 2017 (GMT -0500)
Clayton Lake

Weather History for K40B - January, 2013

Change the Weather History Date:

Thursday, January 17, 2013

  Actual Average Record
Temperature  
Mean Temperature 11 °F -  
Max Temperature 29 °F 16 °F 36 °F (1999)
Min Temperature -9 °F -7 °F -78 °F (2000)
Degree Days  
Heating Degree Days 54    
Moisture  
Dew Point 6 °F    
Average Humidity 69    
Maximum Humidity 89    
Minimum Humidity 44    
Precipitation  
Precipitation 0.01 in - - ()
Sea Level Pressure  
Sea Level Pressure 29.88 in    
Wind  
Wind Speed 8 mph (SSW)    
Max Wind Speed 14 mph    
Max Gust Speed 23 mph    
Averages and records for this station are not official NWS values.
T = Trace of Precipitation, MM = Missing Value Source: NWS Daily Summary

Daily Weather History Graph

Daily Weather History Graph

Search for Another Location

Airport or City:

Trip Planner

Search our weather history database for the weather conditions in past years. The results will help you decide how hot, cold, wet, or windy it might be!

Date:

Astronomy

Jan. 17, 2013 Rise Set
Actual Time 7:16 AM EST 4:20 PM EST
Civil Twilight 6:42 AM EST 4:54 PM EST
Nautical Twilight 6:05 AM EST 5:31 PM EST
Astronomical Twilight 5:29 AM EST 6:07 PM EST
Moon 9:55 AM EST (1/17) 11:37 PM EST (1/17)
Length of Visible Light 10h 11m
Length of Day
9h 03m
Waxing Crescent, 37% of the Moon is Illuminated
Jan 17
Waxing Crescent
Jan 18
First Quarter
Jan 26
Full
Feb 3
Last Quarter
Feb 10
New

Hourly Weather History & Observations

Time (EST) Temp. Windchill Dew Point Humidity Pressure Visibility Wind Dir Wind Speed Gust Speed Precip Events Conditions
12:25 AM 25.2 °F 15.1 °F 22.5 °F 89% 29.71 in - South 10.4 mph - 0.00 in   Unknown
1:26 AM 28.2 °F 17.2 °F 24.1 °F 84% 29.71 in - South 13.8 mph 18.4 mph N/A   Unknown
2:25 AM 28.9 °F 18.2 °F 23.5 °F 80% 29.68 in - South 13.8 mph - N/A   Unknown
3:25 AM 29.1 °F 19.4 °F 23.5 °F 80% 29.65 in - South 11.5 mph - N/A   Unknown
4:25 AM 29.3 °F 19.6 °F 24.3 °F 81% 29.64 in - SSW 11.5 mph 20.7 mph 0.00 in   Unknown
5:25 AM 28.9 °F 20.4 °F 24.8 °F 84% 29.63 in - SSW 9.2 mph 16.1 mph N/A   Unknown
6:25 AM 28.2 °F 21.0 °F 24.1 °F 84% 29.63 in - Variable 6.9 mph 15.0 mph N/A   Unknown
7:25 AM 28.4 °F 22.2 °F 24.3 °F 84% 29.64 in - Variable 5.8 mph 16.1 mph N/A   Unknown
8:26 AM 28.8 °F 21.7 °F 24.4 °F 84% 29.66 in - Variable 6.9 mph 16.1 mph 0.00 in   Unknown
9:25 AM 27.7 °F 22.4 °F 18.9 °F 69% 29.73 in - Variable 4.6 mph 17.3 mph N/A   Unknown
10:25 AM 26.1 °F 21.9 °F 14.2 °F 61% 29.75 in - Variable 3.5 mph 20.7 mph N/A   Unknown
11:25 AM 21.9 °F 15.7 °F 10.2 °F 61% 29.80 in - Variable 4.6 mph 23.0 mph N/A   Unknown
12:27 PM 15.4 °F 8.1 °F 5.0 °F 63% 29.85 in - Variable 4.6 mph - N/A   Unknown
1:25 PM 13.3 °F 2.0 °F -3.5 °F 47% 29.90 in - WSW 8.1 mph 17.3 mph 0.00 in   Unknown
2:25 PM 12.6 °F 1.1 °F -5.4 °F 45% 29.95 in - WSW 8.1 mph 18.4 mph 0.00 in   Unknown
3:25 PM 9.7 °F -1.3 °F -8.5 °F 44% 30.00 in - Variable 6.9 mph 15.0 mph N/A   Unknown
4:25 PM 5.2 °F -3.8 °F -9.9 °F 50% 30.05 in - Variable 4.6 mph 16.1 mph 0.00 in   Unknown
5:25 PM 1.9 °F -5.6 °F -11.4 °F 54% 30.09 in - Variable 3.5 mph - 0.00 in   Unknown
6:25 PM -1.3 °F - -12.3 °F 60% 30.13 in - Calm Calm - 0.00 in   Unknown
7:25 PM -3.6 °F - -12.1 °F 67% 30.16 in - Variable 2.3 mph - N/A   Unknown
8:25 PM -4.7 °F - -12.8 °F 68% 30.18 in - Calm Calm - 0.01 in   Unknown
9:25 PM -5.4 °F - -13.2 °F 69% 30.19 in - Calm Calm - N/A   Unknown
10:25 PM -7.2 °F - -14.3 °F 71% 30.18 in - Calm Calm - N/A   Unknown
11:25 PM -9.4 °F - -14.6 °F 78% 30.18 in - Calm Calm - N/A   Unknown